Location: Ariel
(45.9570°N, 122.5700°W)
Time: 05:25:07
(UTC-07:00)

Altair - Pass Details

Date: 26 July 2019
Orbit: 1501 x 1683 km, 47.2° (Epoch: 18 August)

Event Time Altitude Azimuth Distance (km) Brightness Sun altitude
Rises 15:23:08 0° 280° (W) 4,638 10.4 52.8°
Reaches altitude 10° 15:26:08 10° 281° (W) 3,654 10.0 52.4°
Maximum altitude 15:35:21 88° 13° (NNE) 1,517 8.5 51.1°
Drops below altitude 10° 15:44:44 10° 103° (ESE) 3,717 9.3 49.6°
Sets 15:47:49 0° 104° (ESE) 4,721 9.8 49.2°
